QPF
0.15 0.16 0.16 0.16 0.15 0.13 0.10 0.07 0.05 0.03 0.02 0.02 0.02 0.02 0.02 0.02 0.03 0.05 0.07 0.10 0.09 0.08 0.06 0.04 0.03 0.03 0.03 0.03 0.03 0.02 0.02 0.02 0.02 0.02 0.02 0.04 0.05 0.04 0.06 0.06 0.04 0.03 0.03
0.11 0.10 0.10 0.10 0.10 0.09 0.08 0.06 0.05 0.03 0.02 0.02 0.01 0.01 0.02 0.02 0.02 0.02 0.03 0.03 0.03 0.05 0.06 0.05 0.04 0.04 0.03 0.03 0.03 0.03 0.03 0.03 0.03 0.03 0.02 0.02 0.04 0.04 0.05 0.06 0.04 0.03 0.03
0.07 0.06 0.05 0.05 0.06 0.05 0.05 0.04 0.03 0.02 0.01 0.01 0.01 0.01 0.02 0.01 0.01 0.01 0.01 0.01 0.01 0.02 0.03 0.03 0.03 0.03 0.03 0.03 0.03 0.03 0.02 0.03 0.03 0.04 0.03 0.03 0.03 0.03 0.03 0.06 0.05 0.02 0.02
0.05 0.05 0.04 0.04 0.04 0.03 0.01 0.02 0.02 0.01 0.01 0.01 0.01 0.01 0.01 0.01 0.01 0.01 0.01 0.01 0.01 0.02 0.02 0.02 0.02 0.02 0.03 0.03 0.03 0.03 0.03 0.03 0.04 0.06 0.05 0.04 0.02 0.02 0.02 0.04 0.04 0.03 0.02
0.04 0.04 0.04 0.04 0.03 0.02 0.01 0.00 0.01 0.01 0.02 0.02 0.02 0.03 0.03 0.02 0.02 0.01 0.02 0.02 0.02 0.02 0.02 0.02 0.02 0.02 0.03 0.03 0.02 0.03 0.03 0.04 0.04 0.05 0.05 0.03 0.03 0.02 0.02 0.02 0.04 0.05 0.03
0.04 0.04 0.04 0.03 0.02 0.01 0.01 0.01 0.00 0.01 0.01 0.02 0.03 0.04 0.04 0.03 0.03 0.02 0.02 0.01 0.01 0.02 0.02 0.02 0.02 0.02 0.03 0.03 0.02 0.02 0.03 0.03 0.03 0.04 0.04 0.03 0.04 0.03 0.02 0.03 0.04 0.06 0.05
0.04 0.04 0.04 0.04 0.02 0.02 0.02 0.01 0.01 0.00 0.01 0.02 0.03 0.04 0.04 0.03 0.02 0.02 0.02 0.02 0.01 0.01 0.01 0.01 0.01 0.01 0.01 0.01 0.02 0.02 0.02 0.03 0.03 0.04 0.04 0.05 0.05 0.04 0.03 0.03 0.03 0.04 0.03
0.03 0.03 0.03 0.04 0.03 0.03 0.04 0.02 0.01 0.01 0.01 0.01 0.01 0.02 0.03 0.02 0.02 0.02 0.02 0.01 0.01 0.01 0.01 0.01 0.01 0.00 0.01 0.01 0.01 0.01 0.01 0.01 0.02 0.02 0.02 0.02 0.01 0.01 0.02 0.02 0.02 0.02 0.03
0.02 0.02 0.03 0.04 0.02 0.01 0.02 0.02 0.01 0.02 0.02 0.03 0.02 0.02 0.03 0.03 0.03 0.02 0.01 0.01 0.01 0.02 0.01 0.00 0.00 0.00 0.00 0.00 0.00 0.01 0.01 0.01 0.02 0.02 0.02 0.01 0.01 0.01 0.02 0.03 0.03 0.03 0.03
0.01 0.02 0.03 0.03 0.02 0.02 0.03 0.02 0.01 0.01 0.02 0.03 0.03 0.03 0.04 0.05 0.04 0.02 0.01 0.01 0.01 0.03 0.03 0.01 0.01 0.00 0.00 0.00 0.00 0.01 0.01 0.01 0.01 0.01 0.02 0.02 0.02 0.02 0.02 0.02 0.02 0.03 0.03
0.01 0.01 0.02 0.03 0.03 0.03 0.03 0.03 0.02 0.01 0.02 0.03 0.03 0.03 0.03 0.04 0.04 0.03 0.02 0.01 0.01 0.01 0.02 0.02 0.01 0.01 0.01 0.01 0.01 0.01 0.01 0.02 0.02 0.02 0.02 0.02 0.02 0.02 0.02 0.03 0.03 0.03 0.03
0.01 0.02 0.04 0.05 0.05 0.04 0.05 0.03 0.02 0.03 0.03 0.03 0.02 0.02 0.02 0.02 0.03 0.03 0.03 0.02 0.02 0.01 0.01 0.01 0.01 0.00 0.00 0.01 0.02 0.01 0.02 0.03 0.04 0.04 0.03 0.02 0.02 0.02 0.03 0.03 0.03 0.03 0.03
0.01 0.02 0.05 0.06 0.04 0.04 0.04 0.03 0.04 0.05 0.04 0.02 0.02 0.04 0.02 0.02 0.01 0.02 0.01 0.01 0.01 0.01 0.00 0.00 0.00 0.00 0.00 0.00 0.00 0.01 0.01 0.01 0.02 0.02 0.03 0.02 0.02 0.01 0.02 0.03 0.05 0.06 0.06
0.01 0.03 0.04 0.03 0.03 0.03 0.03 0.04 0.05 0.04 0.04 0.03 0.03 0.04 0.03 0.02 0.01 0.01 0.01 0.01 0.01 0.00 0.00 0.00 0.00 0.00 0.00 0.00 0.00 0.01 0.01 0.01 0.01 0.01 0.03 0.03 0.04 0.03 0.02 0.02 0.03 0.07 0.07
0.01 0.02 0.03 0.02 0.02 0.02 0.01 0.02 0.04 0.04 0.04 0.04 0.04 0.03 0.02 0.02 0.01 0.01 0.01 0.01 0.00 0.00 0.00 0.00 0.00 0.00 0.00 0.00 0.00 0.01 0.01 0.01 0.01 0.01 0.02 0.03 0.04 0.04 0.04 0.04 0.05 0.08 0.07
0.02 0.02 0.02 0.02 0.02 0.02 0.03 0.04 0.05 0.06 0.05 0.04 0.04 0.03 0.02 0.02 0.01 0.01 0.01 0.00 0.00 0.00 0.00 0.00 0.00 0.00 0.01 0.02 0.01 0.01 0.01 0.01 0.01 0.01 0.01 0.02 0.03 0.04 0.04 0.04 0.05 0.04 0.05
0.03 0.02 0.02 0.02 0.02 0.03 0.05 0.05 0.06 0.04 0.03 0.04 0.04 0.04 0.04 0.04 0.03 0.01 0.01 0.00 0.00 0.00 0.00 0.00 0.00 0.01 0.01 0.02 0.02 0.01 0.01 0.01 0.01 0.01 0.01 0.01 0.02 0.02 0.03 0.03 0.03 0.03 0.03
0.02 0.02 0.02 0.02 0.02 0.02 0.03 0.04 0.04 0.02 0.02 0.02 0.03 0.03 0.03 0.02 0.02 0.02 0.01 0.01 0.01 0.01 0.01 0.01 0.01 0.02 0.02 0.03 0.03 0.03 0.02 0.02 0.02 0.02 0.02 0.01 0.01 0.01 0.02 0.02 0.02 0.02 0.02
0.01 0.02 0.02 0.02 0.01 0.01 0.02 0.01 0.02 0.02 0.01 0.01 0.01 0.01 0.01 0.01 0.01 0.01 0.01 0.01 0.01 0.01 0.01 0.01 0.01 0.02 0.02 0.03 0.03 0.03 0.02 0.02 0.01 0.02 0.02 0.02 0.02 0.01 0.02 0.02 0.01 0.01 0.01
0.01 0.01 0.02 0.02 0.01 0.01 0.01 0.01 0.01 0.01 0.00 0.00 0.01 0.00 0.00 0.00 0.00 0.01 0.01 0.01 0.01 0.01 0.01 0.01 0.02 0.02 0.02 0.02 0.02 0.02 0.02 0.02 0.02 0.03 0.03 0.03 0.03 0.02 0.02 0.02 0.02 0.02 0.02
0.01 0.01 0.01 0.01 0.01 0.01 0.01 0.01 0.00 0.01 0.01 0.01 0.01 0.01 0.00 0.00 0.01 0.01 0.01 0.01 0.01 0.01 0.01 0.01 0.01 0.01 0.01 0.01 0.01 0.01 0.02 0.02 0.02 0.03 0.03 0.04 0.04 0.04 0.02 0.02 0.02 0.02 0.02
0.01 0.01 0.01 0.01 0.00 0.00 0.00 0.00 0.00 0.01 0.01 0.01 0.02 0.01 0.01 0.01 0.01 0.01 0.01 0.01 0.01 0.01 0.00 0.00 0.01 0.01 0.01 0.01 0.01 0.01 0.01 0.01 0.01 0.01 0.02 0.02 0.02 0.02 0.02 0.02 0.02 0.02 0.03
0.00 0.01 0.02 0.01 0.00 0.00 0.00 0.00 0.00 0.01 0.01 0.01 0.01 0.01 0.01 0.01 0.01 0.01 0.01 0.01 0.01 0.01 0.00 0.00 0.00 0.00 0.00 0.00 0.00 0.01 0.01 0.01 0.01 0.01 0.01 0.01 0.01 0.01 0.01 0.01 0.01 0.01 0.02
0.00 0.00 0.01 0.01 0.00 0.00 0.00 0.00 0.00 0.00 0.01 0.01 0.01 0.01 0.01 0.01 0.01 0.01 0.01 0.01 0.02 0.02 0.01 0.01 0.01 0.00 0.00 0.00 0.00 0.00 0.00 0.00 0.00 0.00 0.00 0.01 0.00 0.01 0.01 0.01 0.01 0.01 0.02
0.00 0.00 0.00 0.01 0.00 0.00 0.00 0.00 0.00 0.01 0.01 0.01 0.01 0.01 0.01 0.01 0.01 0.00 0.00 0.00 0.01 0.02 0.01 0.01 0.00 0.00 0.00 0.00 0.00 0.00 0.00 0.00 0.00 0.00 0.00 0.00 0.00 0.00 0.01 0.01 0.01 0.01 0.02
0.00 0.00 0.00 0.00 0.00 0.00 0.00 0.00 0.00 0.00 0.01 0.01 0.01 0.01 0.01 0.01 0.00 0.00 0.00 0.00 0.00 0.01 0.01 0.01 0.00 0.00 0.00 0.00 0.00 0.00 0.00 0.00 0.00 0.00 0.00 0.00 0.00 0.00 0.01 0.01 0.01 0.01 0.01
MSLP
1012.70 1012.51 1012.33 1012.12 1011.86 1011.54 1011.16 1010.74 1010.31 1009.91 1009.55 1009.25 1009.01 1008.81 1008.64 1008.49 1008.35 1008.22 1008.12 1008.04 1008.03 1008.08 1008.20 1008.38 1008.62 1008.89 1009.17 1009.45 1009.72 1009.98 1010.23 1010.47 1010.73 1011.00 1011.30 1011.62 1011.96 1012.33 1012.71 1013.10 1013.49 1013.89 1014.29
1012.89 1012.64 1012.40 1012.14 1011.85 1011.50 1011.11 1010.71 1010.30 1009.92 1009.59 1009.30 1009.07 1008.87 1008.69 1008.52 1008.35 1008.18 1008.03 1007.91 1007.85 1007.84 1007.92 1008.06 1008.27 1008.53 1008.81 1009.11 1009.42 1009.72 1010.02 1010.32 1010.62 1010.93 1011.26 1011.59 1011.94 1012.29 1012.64 1013.00 1013.37 1013.75 1014.13
1013.00 1012.71 1012.42 1012.12 1011.80 1011.44 1011.05 1010.65 1010.26 1009.90 1009.59 1009.33 1009.11 1008.93 1008.76 1008.59 1008.42 1008.24 1008.08 1007.95 1007.86 1007.84 1007.90 1008.03 1008.22 1008.47 1008.76 1009.08 1009.41 1009.74 1010.07 1010.40 1010.73 1011.06 1011.39 1011.73 1012.06 1012.39 1012.71 1013.04 1013.37 1013.71 1014.07
1013.06 1012.74 1012.43 1012.11 1011.77 1011.40 1011.01 1010.61 1010.24 1009.90 1009.62 1009.38 1009.19 1009.03 1008.88 1008.74 1008.59 1008.44 1008.30 1008.18 1008.11 1008.10 1008.16 1008.29 1008.48 1008.73 1009.02 1009.34 1009.67 1010.01 1010.34 1010.68 1011.02 1011.35 1011.67 1011.99 1012.30 1012.60 1012.89 1013.17 1013.46 1013.76 1014.08
1013.10 1012.78 1012.47 1012.14 1011.79 1011.42 1011.03 1010.65 1010.29 1009.98 1009.71 1009.50 1009.34 1009.21 1009.10 1008.99 1008.88 1008.77 1008.67 1008.60 1008.56 1008.58 1008.66 1008.80 1008.99 1009.24 1009.52 1009.83 1010.14 1010.47 1010.79 1011.11 1011.43 1011.74 1012.04 1012.33 1012.61 1012.88 1013.13 1013.38 1013.63 1013.88 1014.15
1013.17 1012.86 1012.56 1012.24 1011.89 1011.52 1011.15 1010.78 1010.44 1010.15 1009.91 1009.73 1009.60 1009.50 1009.43 1009.36 1009.29 1009.23 1009.18 1009.15 1009.16 1009.21 1009.31 1009.47 1009.67 1009.91 1010.17 1010.45 1010.74 1011.03 1011.31 1011.60 1011.88 1012.16 1012.43 1012.70 1012.95 1013.19 1013.42 1013.63 1013.84 1014.05 1014.26
1013.28 1013.00 1012.71 1012.40 1012.07 1011.72 1011.36 1011.01 1010.70 1010.43 1010.22 1010.07 1009.97 1009.90 1009.85 1009.82 1009.79 1009.77 1009.76 1009.78 1009.82 1009.91 1010.04 1010.20 1010.40 1010.63 1010.87 1011.12 1011.36 1011.60 1011.84 1012.08 1012.32 1012.56 1012.80 1013.04 1013.27 1013.49 1013.70 1013.88 1014.06 1014.23 1014.39
1013.47 1013.22 1012.94 1012.65 1012.33 1011.99 1011.66 1011.34 1011.06 1010.82 1010.64 1010.51 1010.43 1010.38 1010.36 1010.35 1010.34 1010.35 1010.37 1010.41 1010.48 1010.58 1010.73 1010.90 1011.09 1011.30 1011.52 1011.73 1011.93 1012.12 1012.31 1012.50 1012.70 1012.91 1013.12 1013.34 1013.55 1013.76 1013.95 1014.12 1014.27 1014.41 1014.52
1013.73 1013.50 1013.24 1012.96 1012.65 1012.34 1012.03 1011.74 1011.49 1011.29 1011.14 1011.04 1010.98 1010.94 1010.92 1010.91 1010.91 1010.92 1010.95 1011.00 1011.08 1011.19 1011.33 1011.50 1011.69 1011.88 1012.07 1012.24 1012.41 1012.56 1012.71 1012.86 1013.02 1013.19 1013.38 1013.58 1013.78 1013.98 1014.17 1014.33 1014.46 1014.56 1014.64
1014.06 1013.83 1013.58 1013.31 1013.02 1012.73 1012.45 1012.20 1011.99 1011.83 1011.71 1011.63 1011.58 1011.55 1011.52 1011.50 1011.49 1011.48 1011.49 1011.53 1011.60 1011.71 1011.84 1012.00 1012.18 1012.35 1012.52 1012.67 1012.80 1012.92 1013.03 1013.15 1013.28 1013.42 1013.59 1013.78 1013.97 1014.16 1014.33 1014.48 1014.60 1014.68 1014.72
1014.43 1014.21 1013.95 1013.69 1013.41 1013.14 1012.90 1012.69 1012.52 1012.40 1012.32 1012.26 1012.22 1012.19 1012.15 1012.11 1012.07 1012.03 1012.02 1012.03 1012.07 1012.16 1012.27 1012.42 1012.57 1012.73 1012.88 1013.01 1013.12 1013.21 1013.30 1013.39 1013.49 1013.62 1013.77 1013.93 1014.11 1014.29 1014.45 1014.58 1014.68 1014.74 1014.75
1014.82 1014.59 1014.33 1014.07 1013.81 1013.57 1013.36 1013.20 1013.08 1013.00 1012.94 1012.91 1012.88 1012.85 1012.80 1012.73 1012.65 1012.58 1012.53 1012.50 1012.52 1012.57 1012.66 1012.78 1012.92 1013.05 1013.18 1013.29 1013.38 1013.46 1013.52 1013.59 1013.67 1013.77 1013.90 1014.04 1014.20 1014.35 1014.49 1014.61 1014.68 1014.72 1014.71
1015.18 1014.95 1014.70 1014.44 1014.20 1013.99 1013.82 1013.70 1013.62 1013.58 1013.56 1013.55 1013.54 1013.50 1013.43 1013.34 1013.24 1013.13 1013.04 1012.98 1012.95 1012.97 1013.03 1013.12 1013.23 1013.34 1013.45 1013.54 1013.61 1013.66 1013.70 1013.75 1013.80 1013.88 1013.97 1014.09 1014.22 1014.34 1014.45 1014.54 1014.59 1014.60 1014.57
1015.50 1015.27 1015.02 1014.78 1014.56 1014.37 1014.24 1014.16 1014.12 1014.11 1014.13 1014.14 1014.13 1014.10 1014.02 1013.92 1013.80 1013.66 1013.54 1013.44 1013.39 1013.37 1013.39 1013.45 1013.53 1013.61 1013.68 1013.74 1013.78 1013.81 1013.83 1013.84 1013.87 1013.92 1013.98 1014.06 1014.15 1014.24 1014.32 1014.37 1014.39 1014.38 1014.33
1015.74 1015.52 1015.28 1015.06 1014.86 1014.70 1014.59 1014.54 1014.53 1014.55 1014.59 1014.62 1014.62 1014.59 1014.52 1014.41 1014.28 1014.13 1013.99 1013.88 1013.79 1013.74 1013.73 1013.75 1013.79 1013.83 1013.87 1013.89 1013.90 1013.89 1013.87 1013.86 1013.85 1013.86 1013.89 1013.94 1013.99 1014.04 1014.08 1014.11 1014.10 1014.06 1013.99
1015.89 1015.69 1015.47 1015.26 1015.07 1014.93 1014.85 1014.81 1014.82 1014.86 1014.90 1014.94 1014.95 1014.93 1014.86 1014.76 1014.63 1014.49 1014.35 1014.22 1014.12 1014.05 1014.01 1013.99 1013.99 1013.98 1013.97 1013.95 1013.92 1013.87 1013.82 1013.77 1013.74 1013.71 1013.71 1013.72 1013.74 1013.76 1013.77 1013.76 1013.73 1013.67 1013.59
1015.96 1015.77 1015.57 1015.38 1015.21 1015.08 1014.99 1014.96 1014.96 1015.00 1015.04 1015.07 1015.09 1015.07 1015.02 1014.94 1014.83 1014.70 1014.57 1014.45 1014.34 1014.26 1014.19 1014.14 1014.09 1014.04 1013.99 1013.92 1013.84 1013.76 1013.67 1013.59 1013.52 1013.47 1013.44 1013.42 1013.41 1013.41 1013.39 1013.37 1013.32 1013.25 1013.16
1015.97 1015.80 1015.61 1015.42 1015.26 1015.12 1015.03 1014.98 1014.96 1014.97 1015.00 1015.02 1015.03 1015.02 1014.99 1014.92 1014.84 1014.74 1014.63 1014.53 1014.43 1014.34 1014.25 1014.17 1014.09 1014.00 1013.89 1013.78 1013.67 1013.55 1013.43 1013.32 1013.23 1013.16 1013.11 1013.07 1013.05 1013.03 1013.00 1012.96 1012.90 1012.83 1012.73
1015.95 1015.79 1015.61 1015.43 1015.25 1015.10 1014.98 1014.90 1014.85 1014.82 1014.81 1014.82 1014.82 1014.81 1014.79 1014.75 1014.69 1014.62 1014.55 1014.47 1014.38 1014.29 1014.19 1014.08 1013.97 1013.84 1013.70 1013.55 1013.40 1013.25 1013.11 1012.99 1012.89 1012.80 1012.74 1012.70 1012.67 1012.64 1012.61 1012.56 1012.50 1012.43 1012.34
1015.93 1015.77 1015.60 1015.41 1015.22 1015.05 1014.89 1014.77 1014.67 1014.60 1014.55 1014.52 1014.51 1014.49 1014.48 1014.46 1014.44 1014.40 1014.35 1014.29 1014.21 1014.12 1014.01 1013.89 1013.74 1013.59 1013.42 1013.24 1013.07 1012.90 1012.75 1012.61 1012.51 1012.42 1012.36 1012.32 1012.29 1012.26 1012.23 1012.19 1012.13 1012.07 1011.99
1015.93 1015.78 1015.60 1015.41 1015.20 1015.00 1014.80 1014.63 1014.48 1014.37 1014.28 1014.22 1014.18 1014.16 1014.15 1014.14 1014.13 1014.11 1014.08 1014.03 1013.96 1013.86 1013.74 1013.59 1013.42 1013.24 1013.05 1012.85 1012.66 1012.48 1012.33 1012.20 1012.09 1012.02 1011.96 1011.93 1011.90 1011.88 1011.85 1011.82 1011.78 1011.72 1011.66
1015.96 1015.82 1015.64 1015.44 1015.21 1014.98 1014.76 1014.54 1014.35 1014.19 1014.07 1013.97 1013.91 1013.88 1013.86 1013.85 1013.84 1013.82 1013.79 1013.73 1013.64 1013.53 1013.38 1013.21 1013.01 1012.80 1012.59 1012.38 1012.18 1012.01 1011.85 1011.73 1011.64 1011.57 1011.53 1011.50 1011.48 1011.47 1011.45 1011.43 1011.40 1011.36 1011.31
1016.02 1015.88 1015.71 1015.51 1015.27 1015.03 1014.78 1014.53 1014.31 1014.12 1013.96 1013.84 1013.75 1013.69 1013.65 1013.62 1013.59 1013.55 1013.49 1013.41 1013.29 1013.13 1012.95 1012.74 1012.51 1012.28 1012.04 1011.82 1011.62 1011.45 1011.31 1011.20 1011.12 1011.07 1011.04 1011.02 1011.01 1011.01 1011.00 1010.99 1010.97 1010.94 1010.91
1016.07 1015.95 1015.79 1015.59 1015.36 1015.11 1014.85 1014.59 1014.35 1014.14 1013.95 1013.80 1013.69 1013.60 1013.52 1013.46 1013.39 1013.31 1013.20 1013.06 1012.88 1012.68 1012.44 1012.19 1011.92 1011.66 1011.41 1011.18 1010.98 1010.82 1010.69 1010.60 1010.53 1010.49 1010.47 1010.46 1010.46 1010.46 1010.46 1010.45 1010.44 1010.43 1010.42
1016.06 1015.96 1015.83 1015.65 1015.44 1015.20 1014.94 1014.69 1014.44 1014.21 1014.01 1013.83 1013.69 1013.56 1013.44 1013.32 1013.19 1013.05 1012.87 1012.66 1012.42 1012.15 1011.85 1011.55 1011.25 1010.96 1010.69 1010.46 1010.27 1010.11 1010.00 1009.93 1009.88 1009.85 1009.84 1009.83 1009.83 1009.82 1009.82 1009.81 1009.81 1009.81 1009.81
1015.94 1015.89 1015.78 1015.63 1015.45 1015.23 1014.99 1014.75 1014.51 1014.27 1014.06 1013.86 1013.67 1013.50 1013.33 1013.15 1012.95 1012.73 1012.48 1012.19 1011.87 1011.54 1011.19 1010.84 1010.50 1010.20 1009.92 1009.69 1009.51 1009.38 1009.28 1009.22 1009.19 1009.17 1009.16 1009.15 1009.14 1009.12 1009.11 1009.09 1009.08 1009.08 1009.08
Thickness
5662 5659 5656 5653 5651 5648 5646 5644 5641 5638 5635 5633 5630 5628 5626 5623 5621 5619 5616 5614 5611 5609 5605 5603 5600 5597 5594 5591 5589 5586 5584 5583 5584 5587 5587 5588 5589 5590 5591 5591 5591 5592 5593
5656 5653 5650 5647 5646 5643 5641 5639 5637 5634 5631 5628 5626 5623 5621 5619 5617 5615 5613 5611 5608 5605 5602 5600 5597 5595 5592 5589 5586 5584 5583 5581 5580 5582 5584 5584 5585 5586 5586 5586 5587 5588 5588
5652 5648 5645 5642 5641 5639 5637 5635 5633 5630 5627 5624 5621 5619 5617 5615 5613 5612 5609 5607 5604 5602 5599 5597 5595 5592 5590 5587 5585 5583 5581 5580 5578 5578 5580 5580 5581 5581 5581 5582 5582 5583 5584
5647 5644 5641 5639 5637 5635 5633 5631 5629 5626 5622 5619 5617 5615 5614 5612 5610 5608 5606 5603 5601 5599 5597 5595 5593 5591 5589 5586 5584 5583 5581 5579 5577 5576 5576 5577 5577 5578 5577 5577 5578 5578 5579
5643 5640 5637 5635 5633 5630 5629 5627 5625 5622 5619 5616 5614 5613 5611 5609 5607 5605 5603 5601 5598 5596 5595 5593 5591 5590 5588 5586 5584 5582 5579 5577 5576 5575 5575 5575 5575 5574 5574 5573 5573 5573 5574
5639 5636 5634 5632 5629 5627 5625 5623 5621 5619 5616 5613 5611 5610 5608 5607 5605 5602 5600 5598 5596 5594 5592 5591 5590 5589 5588 5585 5583 5581 5579 5576 5575 5573 5573 5572 5573 5572 5571 5569 5568 5568 5570
5635 5633 5631 5628 5626 5624 5622 5620 5618 5615 5613 5610 5609 5607 5605 5604 5602 5600 5599 5596 5594 5592 5590 5589 5588 5588 5585 5583 5582 5580 5578 5576 5573 5572 5571 5571 5570 5570 5568 5567 5566 5565 5567
5631 5629 5628 5625 5623 5621 5619 5617 5615 5612 5610 5608 5606 5605 5603 5603 5601 5599 5597 5595 5593 5591 5589 5587 5585 5584 5582 5580 5579 5578 5577 5575 5573 5571 5570 5570 5569 5567 5565 5564 5563 5562 5564
5628 5626 5625 5623 5620 5618 5616 5614 5612 5610 5608 5606 5604 5603 5602 5601 5599 5598 5596 5594 5591 5589 5588 5586 5584 5581 5580 5577 5576 5575 5574 5574 5572 5570 5568 5567 5567 5565 5562 5560 5559 5559 5562
5626 5624 5622 5621 5619 5616 5614 5612 5610 5608 5606 5604 5603 5602 5600 5599 5598 5596 5594 5591 5589 5588 5587 5585 5583 5580 5578 5575 5573 5571 5570 5571 5569 5568 5566 5565 5564 5563 5561 5558 5558 5557 5558
5624 5622 5620 5618 5616 5614 5612 5609 5608 5606 5604 5602 5601 5600 5599 5598 5596 5595 5592 5589 5587 5585 5584 5583 5581 5579 5576 5574 5571 5569 5568 5566 5564 5563 5562 5563 5562 5561 5560 5558 5556 5555 5555
5622 5620 5618 5616 5615 5613 5610 5608 5606 5603 5602 5600 5599 5598 5598 5597 5595 5594 5591 5588 5585 5582 5581 5580 5579 5576 5574 5572 5570 5568 5565 5562 5560 5559 5558 5559 5559 5558 5558 5556 5554 5553 5552
5620 5618 5616 5615 5613 5611 5609 5607 5605 5603 5601 5599 5598 5597 5597 5596 5594 5592 5589 5587 5584 5581 5579 5578 5576 5573 5571 5570 5568 5565 5563 5560 5557 5555 5555 5555 5554 5553 5552 5551 5551 5550 5549
5619 5617 5615 5613 5612 5610 5608 5606 5604 5603 5601 5599 5597 5596 5595 5594 5593 5591 5588 5586 5583 5580 5578 5575 5572 5570 5568 5566 5564 5562 5559 5556 5553 5551 5550 5550 5548 5547 5547 5546 5546 5546 5546
5618 5616 5615 5613 5611 5609 5607 5605 5604 5603 5601 5599 5597 5595 5593 5592 5592 5589 5585 5583 5580 5577 5573 5571 5569 5567 5566 5563 5561 5558 5556 5553 5550 5548 5545 5544 5543 5543 5543 5542 5541 5540 5540
5618 5616 5614 5612 5610 5608 5607 5606 5605 5604 5603 5600 5597 5594 5593 5591 5589 5586 5583 5580 5576 5572 5568 5566 5564 5562 5559 5557 5555 5553 5551 5548 5546 5543 5541 5539 5538 5537 5537 5537 5536 5536 5536
5617 5616 5614 5612 5611 5609 5607 5605 5604 5604 5603 5601 5598 5595 5592 5590 5588 5584 5581 5577 5573 5569 5566 5563 5560 5557 5554 5552 5549 5546 5545 5543 5540 5538 5536 5535 5533 5532 5532 5532 5531 5531 5531
5619 5617 5615 5613 5611 5609 5607 5605 5603 5601 5600 5600 5598 5595 5592 5590 5586 5583 5579 5575 5572 5567 5563 5560 5557 5553 5550 5547 5544 5542 5540 5538 5536 5534 5532 5530 5529 5527 5527 5526 5526 5525 5526
5620 5617 5615 5614 5612 5610 5607 5605 5602 5600 5598 5596 5595 5594 5591 5587 5584 5580 5576 5571 5567 5564 5560 5556 5552 5549 5546 5542 5539 5537 5534 5532 5531 5529 5527 5525 5523 5522 5521 5521 5521 5520 5520
5620 5618 5616 5614 5612 5609 5607 5604 5602 5599 5597 5595 5592 5590 5587 5584 5580 5576 5572 5567 5563 5559 5555 5552 5548 5544 5540 5537 5534 5532 5529 5527 5525 5523 5521 5519 5518 5516 5515 5515 5515 5515 5515
5620 5618 5616 5614 5611 5608 5606 5603 5601 5598 5595 5593 5589 5586 5582 5579 5575 5571 5567 5562 5558 5554 5550 5546 5543 5539 5535 5532 5529 5526 5523 5521 5518 5516 5514 5512 5511 5509 5509 5508 5508 5508 5508
5620 5617 5615 5612 5610 5607 5605 5602 5599 5596 5594 5590 5587 5584 5579 5575 5571 5566 5562 5558 5553 5549 5545 5541 5537 5533 5529 5525 5522 5519 5517 5514 5512 5509 5507 5505 5503 5503 5502 5501 5501 5501 5500
5619 5617 5614 5611 5609 5606 5604 5601 5598 5595 5591 5588 5584 5581 5576 5571 5567 5562 5557 5553 5548 5544 5540 5537 5533 5529 5524 5520 5516 5512 5509 5507 5504 5501 5499 5498 5496 5495 5494 5493 5493 5493 5493
5618 5616 5613 5610 5608 5605 5602 5599 5596 5593 5589 5586 5582 5577 5572 5567 5562 5557 5553 5549 5544 5540 5536 5532 5528 5523 5519 5515 5511 5507 5503 5499 5497 5495 5492 5490 5489 5487 5487 5486 5485 5485 5485
5617 5614 5612 5609 5607 5604 5601 5597 5594 5591 5587 5583 5579 5574 5569 5564 5559 5554 5550 5545 5541 5537 5533 5528 5524 5519 5515 5511 5506 5502 5498 5494 5491 5488 5486 5484 5482 5481 5479 5479 5478 5477 5477
5616 5613 5611 5608 5605 5602 5599 5596 5592 5589 5585 5580 5576 5571 5566 5561 5556 5552 5547 5542 5538 5534 5529 5525 5520 5516 5511 5507 5502 5497 5493 5490 5486 5482 5480 5478 5476 5474 5473 5471 5470 5470 5469